Weather History for KMTN - May, 2014

Change the Weather History Date:

Wednesday, May 7, 2014

  Actual Average Record
Temperature  
Mean Temperature 56 °F -  
Max Temperature 66 °F 69 °F 89 °F (2000)
Min Temperature 46 °F 52 °F 42 °F (2007)
Degree Days  
Heating Degree Days 9    
Growing Degree Days 6 (Base 50)    
Moisture  
Dew Point 46 °F    
Average Humidity 73    
Maximum Humidity 82    
Minimum Humidity 37    
Precipitation  
Precipitation 0.00 in - - ()
Sea Level Pressure  
Sea Level Pressure 30.18 in    
Wind  
Wind Speed 1 mph (East)    
Max Wind Speed 7 mph    
Max Gust Speed -    
Visibility 10 miles    
Events Rain    
Averages and records for this station are not official NWS values.
T = Trace of Precipitation, MM = Missing Value Source: NWS Daily Summary

Daily Weather History Graph

Daily Weather History Graph

Search for Another Location

Airport or City:

Trip Planner

Search our weather history database for the weather conditions in past years. The results will help you decide how hot, cold, wet, or windy it might be!

Date:

Astronomy

May. 07, 2014 Rise Set
Actual Time 6:00 AM EDT 8:04 PM EDT
Civil Twilight 5:30 AM EDT 8:34 PM EDT
Nautical Twilight 4:54 AM EDT 9:10 PM EDT
Astronomical Twilight 4:15 AM EDT 9:49 PM EDT
Moon 1:10 PM EDT (5/7) 1:55 AM EDT (5/7)
Length of Visible Light 15h 03m
Length of Day
14h 04m
First Quarter, 55% of the Moon is Illuminated
May 7
First Quarter
May 14
Full
May 21
Last Quarter
May 28
New
Jun 5
First Quarter

Hourly Weather History & Observations

Time (EDT) Temp. Dew Point Humidity Pressure Visibility Wind Dir Wind Speed Gust Speed Precip Events Conditions
12:12 AM 53.6 °F 48.2 °F 82% 30.09 in 10.0 mi Calm Calm - N/A   Clear
12:30 AM 53.6 °F 48.2 °F 82% 30.10 in 10.0 mi Calm Calm - N/A   Clear
1:12 AM 51.8 °F 44.6 °F 76% 30.11 in 10.0 mi Calm Calm - N/A   Clear
1:30 AM 51.8 °F 44.6 °F 76% 30.11 in 10.0 mi Calm Calm - N/A   Clear
1:51 AM 50.0 °F 44.6 °F 82% 30.11 in 10.0 mi Calm Calm - N/A   Clear
2:12 AM 50.0 °F 44.6 °F 82% 30.11 in 10.0 mi Calm Calm - N/A   Clear
2:30 AM 50.0 °F 44.6 °F 82% 30.12 in 10.0 mi Calm Calm - N/A   Clear
2:51 AM 51.8 °F 42.8 °F 71% 30.12 in 10.0 mi Calm Calm - N/A   Clear
3:12 AM 51.8 °F 42.8 °F 71% 30.13 in 10.0 mi Calm Calm - N/A   Clear
3:33 AM 50.0 °F 42.8 °F 76% 30.14 in 10.0 mi Calm Calm - N/A   Clear
3:51 AM 48.2 °F 41.0 °F 76% 30.14 in 10.0 mi Calm Calm - N/A   Clear
4:12 AM 48.2 °F 42.8 °F 82% 30.15 in 10.0 mi Calm Calm - N/A   Clear
4:33 AM 46.4 °F 41.0 °F 81% 30.15 in 10.0 mi Calm Calm - N/A   Clear
4:51 AM 46.4 °F 41.0 °F 81% 30.16 in 10.0 mi Calm Calm - N/A   Clear
5:12 AM 46.4 °F 41.0 °F 81% 30.16 in 10.0 mi Calm Calm - N/A   Clear
5:30 AM 46.4 °F 41.0 °F 81% 30.17 in 10.0 mi Calm Calm - N/A   Clear
5:50 AM - - N/A% 30.18 in 10.0 mi Calm Calm - N/A   Scattered Clouds
6:45 AM 48.2 °F 42.8 °F 82% 30.19 in 10.0 mi Calm Calm - N/A   Partly Cloudy
7:45 AM 59.0 °F 46.4 °F 63% 30.21 in 10.0 mi Calm Calm - N/A   Partly Cloudy
8:45 AM 62.6 °F 42.8 °F 48% 30.23 in 10.0 mi ENE 4.6 mph - N/A   Partly Cloudy
9:45 AM 64.4 °F 39.2 °F 40% 30.24 in 10.0 mi ENE 6.9 mph - N/A   Scattered Clouds
10:45 AM 66.2 °F 39.2 °F 37% 30.24 in 10.0 mi East 6.9 mph - N/A   Mostly Cloudy
11:55 AM 64.4 °F 41.0 °F 42% 30.27 in 10.0 mi Calm Calm - N/A   Mostly Cloudy
12:45 PM 62.6 °F 42.8 °F 48% 30.27 in 10.0 mi South 5.8 mph - N/A Rain Light Rain
1:50 PM 57.2 °F 51.8 °F 82% 30.24 in 10.0 mi South 3.5 mph - N/A   Mostly Cloudy
2:45 PM 62.6 °F 53.6 °F 72% 30.22 in 10.0 mi SE 5.8 mph - N/A   Overcast
3:55 PM 62.6 °F 51.8 °F 68% 30.21 in 10.0 mi East 3.5 mph - N/A   Mostly Cloudy
4:45 PM 64.4 °F 51.8 °F 64% 30.20 in 10.0 mi East 4.6 mph - N/A   Overcast
6:45 PM 64.4 °F 51.8 °F 64% 30.18 in 10.0 mi East 4.6 mph - N/A   Mostly Cloudy
7:45 PM 60.8 °F 51.8 °F 72% 30.20 in 10.0 mi Calm Calm - N/A   Mostly Cloudy
8:45 PM 60.8 °F 51.8 °F 72% 30.21 in 10.0 mi Calm Calm - N/A   Mostly Cloudy
9:45 PM 59.0 °F 51.8 °F 77% 30.20 in 10.0 mi Calm Calm - N/A   Mostly Cloudy
10:15 PM 57.2 °F 51.8 °F 82% 30.20 in 10.0 mi ENE 3.5 mph - N/A   Clear
10:30 PM 57.2 °F 51.8 °F 82% 30.20 in 10.0 mi East 5.8 mph - N/A   Clear
10:54 PM 57.2 °F 51.8 °F 82% 30.20 in 10.0 mi East 4.6 mph - N/A   Clear
11:15 PM 57.2 °F 51.8 °F 82% 30.19 in 10.0 mi East 5.8 mph - N/A   Scattered Clouds
11:33 PM 57.2 °F 51.8 °F 82% 30.19 in 10.0 mi East 4.6 mph - N/A   Mostly Cloudy
11:54 PM 57.2 °F 51.8 °F 82% 30.19 in 10.0 mi East 5.8 mph - N/A   Overcast